When you browse on this site, cookies collect data to enhance your experience and personalize the content and advertising you see.
Visit our Privacy Policy to learn more. By continuing to use the site, you agree to this use of cookies and data.
  • In Latvia
  • List of Countries
  • For 7 days
  • Water Temperature
  • Satellite Maps
  • Weather Map
  • Weather Widgets
  • user-avatar
    Login

    Hourly Weather Ropotamo

    Today, 18 January, Friday

    Time Temperature Precipitation Wind Pressure Humidity
    00:00 +6°C° 0 mm 4 mps 760 mmHg 82%
    01:00 +5°C° 0 mm 4 mps 759 mmHg 82%
    02:00 +6°C° 0 mm 4 mps 759 mmHg 80%
    03:00 +6°C° 0 mm 4 mps 759 mmHg 82%
    04:00 +5°C° 0 mm 4 mps 759 mmHg 84%
    05:00 +5°C° 0 mm 4 mps 759 mmHg 86%
    06:00 +5°C° 0 mm 3 mps 759 mmHg 87%
    07:00 +5°C° 0 mm 3 mps 759 mmHg 88%
    08:00 +5°C° 0 mm 3 mps 759 mmHg 90%
    09:00 +8°C° 0 mm 3 mps 759 mmHg 85%
    10:00 +8°C° 0 mm 4 mps 759 mmHg 80%
    11:00 +11°C° 0 mm 4 mps 759 mmHg 75%
    12:00 +11°C° 0 mm 4 mps 759 mmHg 73%
    13:00 +12°C° 0 mm 4 mps 758 mmHg 70%
    14:00 +12°C° 0 mm 4 mps 758 mmHg 68%
    15:00 +12°C° 0 mm 4 mps 758 mmHg 72%
    16:00 +11°C° 0 mm 3 mps 758 mmHg 76%
    17:00 +10°C° 0 mm 3 mps 758 mmHg 79%
    18:00 +10°C° 0 mm 3 mps 758 mmHg 81%
    19:00 +10°C° 0 mm 4 mps 758 mmHg 83%
    20:00 +8°C° 0 mm 4 mps 758 mmHg 85%
    21:00 +8°C° 0 mm 4 mps 758 mmHg 84%
    22:00 +10°C° 0 mm 4 mps 758 mmHg 83%
    23:00 +10°C° 0 mm 4 mps 759 mmHg 82%

    Tomorrow, 19 January, Saturday

    Time Temperature Precipitation Wind Pressure Humidity
    00:00 +8°C° 0 mm 4 mps 759 mmHg 83%
    01:00 +8°C° 0 mm 4 mps 759 mmHg 84%
    02:00 +9°C° 0 mm 3 mps 759 mmHg 84%
    03:00 +8°C° 0 mm 3 mps 759 mmHg 84%
    04:00 +8°C° 0 mm 3 mps 759 mmHg 84%
    05:00 +7°C° 0 mm 3 mps 760 mmHg 84%
    06:00 +7°C° 0 mm 3 mps 760 mmHg 82%
    07:00 +7°C° 0 mm 2 mps 760 mmHg 79%
    08:00 +7°C° 0 mm 2 mps 761 mmHg 77%
    09:00 +8°C° 0 mm 3 mps 761 mmHg 72%
    10:00 +8°C° 0 mm 3 mps 762 mmHg 66%
    11:00 +8°C° 0 mm 4 mps 762 mmHg 61%
    12:00 +8°C° 0 mm 4 mps 762 mmHg 64%
    13:00 +7°C° 0 mm 4 mps 762 mmHg 67%
    14:00 +7°C° 0 mm 5 mps 762 mmHg 70%
    15:00 +6°C° 0 mm 5 mps 762 mmHg 76%
    16:00 +6°C° 0 mm 5 mps 762 mmHg 81%
    17:00 +5°C° 0 mm 5 mps 762 mmHg 87%
    18:00 +5°C° 0.1 mm 4 mps 762 mmHg 87%
    19:00 +5°C° 0.1 mm 4 mps 762 mmHg 87%
    20:00 +5°C° 0.1 mm 4 mps 762 mmHg 87%
    21:00 +5°C° 0.1 mm 4 mps 762 mmHg 87%
    22:00 +6°C° 0.1 mm 4 mps 762 mmHg 87%
    23:00 +6°C° 0.1 mm 4 mps 762 mmHg 87%

    Day after tomorrow, 20 January, Sunday

    Time Temperature Precipitation Wind Pressure Humidity
    00:00 +6°C° 0.1 mm 4 mps 762 mmHg 88%
    01:00 +6°C° 0.1 mm 4 mps 762 mmHg 90%
    02:00 +6°C° 0.1 mm 5 mps 762 mmHg 91%
    03:00 +6°C° 0.1 mm 4 mps 761 mmHg 92%
    04:00 +6°C° 0.1 mm 4 mps 761 mmHg 92%
    05:00 +6°C° 0.1 mm 4 mps 760 mmHg 93%
    06:00 +6°C° 0 mm 4 mps 760 mmHg 94%
    07:00 +7°C° 0 mm 4 mps 760 mmHg 95%
    08:00 +7°C° 0 mm 4 mps 760 mmHg 96%
    09:00 +7°C° 0 mm 4 mps 760 mmHg 93%
    10:00 +8°C° 0 mm 4 mps 760 mmHg 89%
    11:00 +10°C° 0 mm 4 mps 760 mmHg 86%
    12:00 +10°C° 0.1 mm 3 mps 759 mmHg 84%
    13:00 +11°C° 0.1 mm 3 mps 759 mmHg 81%
    14:00 +11°C° 0.1 mm 3 mps 758 mmHg 79%
    15:00 +12°C° 0 mm 2 mps 758 mmHg 82%
    16:00 +10°C° 0 mm 2 mps 758 mmHg 84%
    17:00 +10°C° 0 mm 2 mps 758 mmHg 86%
    18:00 +10°C° 0.4 mm 2 mps 758 mmHg 88%
    19:00 +9°C° 0.4 mm 2 mps 757 mmHg 90%
    20:00 +9°C° 0.4 mm 3 mps 757 mmHg 92%
    21:00 +9°C° 0.5 mm 3 mps 757 mmHg 91%
    22:00 +9°C° 0.5 mm 3 mps 757 mmHg 90%
    23:00 +9°C° 0.5 mm 3 mps 757 mmHg 89%

    21 January, Monday

    Time Temperature Precipitation Wind Pressure Humidity
    00:00 +9°C° 0.1 mm 3 mps 757 mmHg 90%
    01:00 +9°C° 0.1 mm 3 mps 757 mmHg 90%
    02:00 +9°C° 0.1 mm 3 mps 757 mmHg 90%
    03:00 +9°C° 0 mm 3 mps 757 mmHg 91%
    04:00 +8°C° 0 mm 3 mps 757 mmHg 92%
    05:00 +8°C° 0 mm 3 mps 758 mmHg 93%
    06:00 +8°C° 0 mm 3 mps 758 mmHg 91%
    07:00 +7°C° 0 mm 3 mps 759 mmHg 90%
    08:00 +6°C° 0 mm 4 mps 759 mmHg 88%
    09:00 +6°C° 0 mm 4 mps 760 mmHg 83%
    10:00 +6°C° 0 mm 4 mps 760 mmHg 78%
    11:00 +6°C° 0 mm 4 mps 761 mmHg 73%
    12:00 +7°C° 0 mm 5 mps 761 mmHg 72%
    13:00 +7°C° 0 mm 5 mps 761 mmHg 70%
    14:00 +7°C° 0 mm 5 mps 761 mmHg 69%
    15:00 +6°C° 0 mm 5 mps 761 mmHg 73%
    16:00 +5°C° 0 mm 5 mps 762 mmHg 76%
    17:00 +5°C° 0 mm 5 mps 762 mmHg 80%
    18:00 +5°C° 0 mm 5 mps 763 mmHg 80%
    19:00 +3°C° 0 mm 5 mps 763 mmHg 81%
    20:00 +3°C° 0 mm 5 mps 764 mmHg 81%
    21:00 +3°C° 0 mm 5 mps 764 mmHg 80%
    22:00 +3°C° 0 mm 5 mps 765 mmHg 79%
    23:00 +3°C° 0 mm 5 mps 765 mmHg 78%

    22 January, Tuesday

    Time Temperature Precipitation Wind Pressure Humidity
    00:00 +3°C° 0 mm 5 mps 765 mmHg 78%
    01:00 +3°C° 0 mm 5 mps 765 mmHg 79%
    02:00 +3°C° 0 mm 5 mps 765 mmHg 79%
    03:00 +3°C° 0 mm 5 mps 765 mmHg 80%
    04:00 +3°C° 0 mm 5 mps 764 mmHg 80%
    05:00 +3°C° 0 mm 5 mps 764 mmHg 81%
    06:00 +3°C° 0.1 mm 5 mps 764 mmHg 82%
    07:00 +3°C° 0.1 mm 5 mps 764 mmHg 83%
    08:00 +3°C° 0.1 mm 5 mps 764 mmHg 84%
    09:00 +3°C° 0.1 mm 5 mps 764 mmHg 82%
    10:00 +3°C° 0.1 mm 5 mps 764 mmHg 81%
    11:00 +5°C° 0.1 mm 5 mps 764 mmHg 80%
    12:00 +5°C° 0 mm 5 mps 763 mmHg 79%
    13:00 +5°C° 0 mm 5 mps 762 mmHg 79%
    14:00 +5°C° 0 mm 4 mps 762 mmHg 79%
    15:00 +5°C° 0 mm 4 mps 761 mmHg 80%
    16:00 +5°C° 0 mm 4 mps 761 mmHg 81%
    17:00 +4°C° 0 mm 4 mps 760 mmHg 83%
    18:00 +5°C° 0 mm 4 mps 760 mmHg 83%
    19:00 +5°C° 0 mm 4 mps 759 mmHg 82%
    20:00 +5°C° 0 mm 4 mps 759 mmHg 82%
    21:00 +5°C° 0 mm 4 mps 758 mmHg 82%
    22:00 +5°C° 0 mm 4 mps 758 mmHg 83%
    23:00 +5°C° 0 mm 4 mps 758 mmHg 84%

    23 January, Wednesday

    Time Temperature Precipitation Wind Pressure Humidity
    00:00 +5°C° 0 mm 4 mps 757 mmHg 84%
    01:00 +5°C° 0 mm 4 mps 756 mmHg 84%
    02:00 +5°C° 0 mm 4 mps 755 mmHg 85%
    03:00 +5°C° 0 mm 4 mps 755 mmHg 86%
    04:00 +5°C° 0 mm 5 mps 754 mmHg 88%
    05:00 +3°C° 0 mm 5 mps 753 mmHg 89%
    06:00 +5°C° 0.2 mm 5 mps 753 mmHg 90%
    07:00 +4°C° 0.2 mm 6 mps 752 mmHg 90%
    08:00 +5°C° 0.2 mm 7 mps 752 mmHg 90%
    09:00 +6°C° 0.7 mm 7 mps 752 mmHg 87%
    10:00 +8°C° 0.7 mm 7 mps 751 mmHg 83%
    11:00 +9°C° 0.7 mm 8 mps 751 mmHg 80%
    12:00 +9°C° 0.1 mm 7 mps 750 mmHg 78%
    13:00 +10°C° 0.1 mm 7 mps 749 mmHg 76%
    14:00 +11°C° 0.1 mm 6 mps 749 mmHg 74%
    15:00 +11°C° 0 mm 6 mps 748 mmHg 73%
    16:00 +10°C° 0 mm 6 mps 748 mmHg 73%
    17:00 +10°C° 0 mm 6 mps 748 mmHg 72%
    18:00 +10°C° 0 mm 6 mps 748 mmHg 75%
    19:00 +9°C° 0 mm 6 mps 748 mmHg 77%
    20:00 +9°C° 0 mm 6 mps 748 mmHg 79%
    21:00 +9°C° 0 mm 6 mps 748 mmHg 80%
    22:00 +9°C° 0 mm 6 mps 748 mmHg 81%
    23:00 +9°C° 0 mm 5 mps 748 mmHg 82%
    Show more